Regional Weather Roundup
Issued by NWS

Home | Current Version | Previous Version | Graphics & Text | Print | Product List | Glossary On
Versions: 1 2 3 4 5 6 7 8 9 10 11 12 13 14 15 16 17 18 19 20 21 22 23 24 25 26 27 28 29 30 31 32 33 34 35 36 37 38 39 40 41 42 43 44 45 46 47 48 49 50
000
ASUS43 KIND 011309
RWRIN

WEATHER ROUNDUP FOR INDIANA
NATIONAL WEATHER SERVICE INDIANAPOLIS IN
800 AM EST SUN FEB 01 2015

NOTE: "FAIR" INDICATES FEW OR NO CLOUDS BELOW 12,000 FEET WITH NO
SIGNIFICANT WEATHER AND/OR OBSTRUCTIONS TO VISIBILITY.

* - STATION DOES NOT REPORT WEATHER SUCH AS PRECIPITATION OR FOG.

+ - STATION NOT QUALITY CONTROLLED BY THE NATIONAL WEATHER SERVICE.
    USE DATA WITH CAUTION...ESPECIALLY DEWPOINT AND RELATIVE
    HUMIDITY OBSERVATIONS.

INZ001>003-010>013-019-020-011400-
NORTHWEST INDIANA

CITY           SKY/WX    TMP DP  RH WIND       PRES   REMARKS
GARY /AIRPORT/ LGT SNOW  34  32  93 CALM      29.96F VSB 1
KNOX *+        CLOUDY    32  28  86 SE6       29.97F VSB 1/2 WCI  26
LA PORTE +     LGT SNOW  34  34 100 E6        29.98F VSB 3/4 WCI  28
MICHIGAN CITY+ LGT SNOW  32  30  93 E3        29.99F VSB 1
MONTICELLO +   CLOUDY    32  32 100 E3        29.96F FOG
RENSSELAER +   MIX PCPN  32  32 100 E6        29.95F WCI  26
VALPARAISO     SNOW      32  31  96 E8        29.97F VSB 1/2 WCI  25

$$

LMZ046-743>745-011400-
SOUTHERN LAKE MICHIGAN

STATION/POSITION TIME  TEMP WIND        PRES
                       AIR  DIR/SP/G
                 (UTC) (F)  (DEG/KT/KT) (MB)
MICHIGAN CITY    1300   30   50/ 10/ 12   N/A

$$

INZ004-005-014>016-021>024-011400-
NORTH CENTRAL INDIANA

CITY           SKY/WX    TMP DP  RH WIND       PRES   REMARKS
ELKHART        LGT SNOW  30  28  93 E6        30.03  WCI  24
GOSHEN         LGT SNOW  32  31  96 E7        30.02F VSB 3/4 WCI  26
LOGANSPORT +   CLOUDY    32  32 100 E8        29.98F FOG     WCI  25
PERU/GRISSOM   CLOUDY    32  32 100 E9        29.97F WCI  24
ROCHESTER +    MIX PCPN  34 N/A N/A NE3       29.99F
SOUTH BEND     NOT AVBL
WARSAW +       LGT SNOW  32  32 100 CALM      30.02F

$$

INZ006>009-017-018-025>027-011400-
NORTHEAST INDIANA

CITY           SKY/WX    TMP DP  RH WIND       PRES   REMARKS
ANGOLA *+      CLOUDY    28  27  93 E9        30.05F WCI  20
AUBURN +       LGT SNOW  32  32 100 E6        30.05F WCI  26
FORT WAYNE     LGT SNOW  33  31  92 E10       30.04F FOG     WCI  25
HUNTINGTON +   LGT RAIN  32  29  90 E6        30.00F WCI  26

$$

INZ028-029-035-036-043>045-051>053-011400-
WEST CENTRAL INDIANA

CITY           SKY/WX    TMP DP  RH WIND       PRES   REMARKS
CRAWFORDSVL +  CLOUDY    31  24  75 E7        29.93F WCI  24
GREENCASTLE +  CLOUDY    32  27  80 SE9       29.92F WCI  24
LAFAYETTE      CLOUDY    32  32 100 E9        29.96S FOG     WCI  24
TERRE HAUTE    CLOUDY    35  26  69 S5        29.94R WCI  31

$$

INZ030>032-037>040-046>048-054>057-064-065-011400-
CENTRAL INDIANA

CITY           SKY/WX    TMP DP  RH WIND       PRES   REMARKS
CP ATTERBURY + CLOUDY    34  28  80 E6        29.97F WCI  29
COLUMBUS       CLOUDY    34  25  69 SE7       29.97F WCI  28
FRANKFORT +    CLOUDY    34  34 100 E13       29.96F WCI  25
GREENWOOD *+   CLOUDY    34  27  75 SE10      29.97F WCI  26
INDIANAPOLIS   CLOUDY    31  27  85 E10       29.95F WCI  22
-EAGLE CREEK   CLOUDY    32  28  85 E9        29.94F WCI  24
KOKOMO *+      CLOUDY    34  30  86 E10       29.97F WCI  26
MARION +       CLOUDY    32  32  99 E8        29.99F FOG     WCI  25
MT COMFORT *+  CLOUDY    34  23  64 SE10      29.97F WCI  26
SHELBYVILLE    CLOUDY    35  28  75 E12       29.96F WCI  27
ZIONSVILLE +   CLOUDY    33  29  87 E8        29.96F WCI  25

$$

INZ033-034-041-042-049-050-058-059-011400-
EAST CENTRAL INDIANA

CITY           SKY/WX    TMP DP  RH WIND       PRES   REMARKS
MUNCIE         CLOUDY    34  30  85 E13       29.99F WCI  25

$$

INZ060-061-067>069-081>083-085>088-011400-
SOUTHWEST INDIANA

CITY           SKY/WX    TMP DP  RH WIND       PRES   REMARKS
EVANSVILLE     LGT RAIN  45  23  42 S9        29.89F
HUNTINGBURG *+ CLOUDY    43  21  42 SE12      29.91F
WASHINGTON +   CLOUDY    37  23  56 SE6       29.90F

$$

INZ062-063-066-070>080-084-089>092-011400-
SOUTH CENTRAL AND SOUTHEAST INDIANA

CITY           SKY/WX    TMP DP  RH WIND       PRES   REMARKS
BLOOMINGTON    CLOUDY    35  23  61 SE9       29.92F WCI  28
NORTH VERNON + CLOUDY    36  27  69 E5        29.99F
SEYMOUR +      CLOUDY    36  25  64 SE6       29.97F

$$



USA.gov is the U.S. government's official web portal to all federal, state and local government web resources and services.